K2BIG Weather Reports


Display with metric or nautical units.
time (UTC)temp
F
wind
direction
speed
MPH
gust
MPH
rain 1hr
in
rain 24hr
in
rain mn
in
humidity
%
barometer
mb
20260510133015 57 203 2.0 4.0 0.00 0.16 0.00 98 1013.2
20260510132515 57 203 1.0 6.0 0.00 0.16 0.00 99 1013.3
20260510132015 57 248 3.0 6.0 0.00 0.16 0.00 99 1013.3
20260510131515 57 248 1.0 4.0 0.00 0.16 0.00 99 1013.3
20260510131015 57 248 2.0 4.0 0.00 0.16 0.00 99 1013.3
20260510130515 57 203 1.0 4.0 0.00 0.17 0.00 100 1013.2
20260510130015 56 0.0 4.0 0.00 0.17 0.00 100 1013.0
20260510125515 56 203 1.0 4.0 0.00 0.17 0.00 100 1013.0
20260510125015 55 0.0 2.0 0.00 0.17 0.00 100 1013.0
20260510124515 54 0.0 2.0 0.00 0.17 0.00 99 1013.0
20260510124015 54 0.0 1.0 0.00 0.17 0.00 99 1013.0
20260510123515 53 0.0 0.0 0.00 0.17 0.00 99 1013.1
20260510123015 52 0.0 1.0 0.00 0.17 0.00 99 1013.0
20260510122515 52 0.0 1.0 0.00 0.17 0.00 99 1012.8
20260510122015 51 0.0 0.0 0.00 0.17 0.00 99 1012.8
20260510121515 51 0.0 0.0 0.00 0.17 0.00 99 1012.6
20260510121015 50 0.0 0.0 0.00 0.17 0.00 99 1012.6
20260510120515 50 0.0 0.0 0.00 0.17 0.00 99 1012.6
20260510120015 50 0.0 0.0 0.00 0.17 0.00 98 1012.6
20260510115515 50 0.0 0.0 0.00 0.17 0.00 98 1012.5
20260510115015 50 0.0 0.0 0.00 0.17 0.00 98 1012.4
20260510114515 50 0.0 0.0 0.00 0.17 0.00 99 1012.4
20260510114016 50 0.0 0.0 0.00 0.17 0.00 99 1012.4
20260510113516 50 0.0 0.0 0.00 0.17 0.00 99 1012.5
20260510113015 50 0.0 0.0 0.00 0.17 0.00 99 1012.4
20260510112515 49 0.0 0.0 0.00 0.17 0.00 98 1012.3
20260510112017 49 0.0 0.0 0.00 0.17 0.00 98 1012.3
20260510111517 49 0.0 0.0 0.00 0.17 0.00 98 1012.3
20260510111018 49 0.0 0.0 0.00 0.17 0.00 98 1012.1
20260510110517 49 0.0 0.0 0.00 0.17 0.00 99 1012.1
20260510110017 49 0.0 0.0 0.00 0.17 0.00 98 1012.0
20260510105517 49 0.0 0.0 0.00 0.17 0.00 98 1011.9
20260510105017 49 0.0 0.0 0.00 0.17 0.00 98 1011.8
20260510104517 48 0.0 0.0 0.00 0.17 0.00 98 1011.9
20260510104017 48 0.0 0.0 0.00 0.17 0.00 98 1011.9
20260510103517 48 0.0 0.0 0.00 0.17 0.00 98 1011.9
20260510103017 48 0.0 0.0 0.00 0.17 0.00 98 1011.7
20260510102517 48 0.0 0.0 0.00 0.17 0.00 98 1011.7
20260510102017 48 0.0 0.0 0.00 0.17 0.00 98 1011.7
20260510101517 48 0.0 0.0 0.00 0.17 0.00 98 1011.8
20260510101017 48 0.0 0.0 0.00 0.17 0.00 98 1011.7
20260510100516 48 0.0 0.0 0.00 0.17 0.00 98 1011.6
20260510100017 48 0.0 0.0 0.00 0.17 0.00 98 1011.5
20260510095517 48 0.0 0.0 0.00 0.17 0.00 98 1011.4
20260510095017 48 0.0 0.0 0.00 0.17 0.00 98 1011.4
20260510094517 48 0.0 0.0 0.00 0.17 0.00 98 1011.5
20260510094017 48 0.0 0.0 0.00 0.17 0.00 98 1011.4
20260510093517 48 0.0 1.0 0.00 0.17 0.00 98 1011.4
20260510093017 47 0.0 2.0 0.00 0.17 0.00 98 1011.3
20260510092517 47 0.0 0.0 0.00 0.17 0.00 98 1011.1
20260510092017 47 0.0 0.0 0.00 0.17 0.00 98 1010.9
20260510091517 47 0.0 0.0 0.00 0.17 0.00 98 1011.0
20260510091016 47 0.0 0.0 0.00 0.17 0.00 98 1011.3
20260510090516 47 0.0 0.0 0.00 0.17 0.00 98 1011.1
20260510090016 47 0.0 0.0 0.00 0.17 0.00 98 1010.9
20260510085516 47 0.0 0.0 0.00 0.17 0.00 98 1010.8
20260510085016 47 0.0 0.0 0.00 0.17 0.00 98 1011.0
20260510084516 47 0.0 0.0 0.00 0.17 0.00 98 1011.1
20260510084016 47 0.0 0.0 0.00 0.17 0.00 98 1011.2
20260510083516 48 0.0 1.0 0.00 0.17 0.00 98 1011.3
20260510083016 48 0.0 0.0 0.00 0.17 0.00 98 1011.4
20260510082516 48 0.0 1.0 0.00 0.17 0.00 98 1011.4
20260510082016 48 0.0 2.0 0.00 0.17 0.00 98 1011.3
20260510081516 48 0.0 0.0 0.00 0.17 0.00 98 1011.3
20260510081016 48 0.0 0.0 0.00 0.18 0.00 98 1011.5
20260510080516 48 0.0 0.0 0.00 0.18 0.00 98 1011.6
20260510080016 48 0.0 1.0 0.00 0.18 0.00 98 1011.6
20260510075516 48 0.0 0.0 0.00 0.18 0.00 98 1011.8
20260510075016 48 0.0 1.0 0.00 0.18 0.00 98 1011.8
20260510074516 48 0.0 3.0 0.00 0.18 0.00 98 1011.7
20260510074016 48 0.0 0.0 0.00 0.18 0.00 98 1011.8
20260510073516 48 0.0 0.0 0.00 0.18 0.00 98 1011.8
20260510073016 48 0.0 0.0 0.00 0.18 0.00 98 1011.8
20260510072516 48 0.0 0.0 0.00 0.18 0.00 98 1012.0
20260510072016 48 0.0 1.0 0.00 0.19 0.00 98 1012.0
20260510071516 47 0.0 1.0 0.00 0.19 0.00 98 1012.0
20260510071016 47 0.0 0.0 0.00 0.19 0.00 98 1012.0
20260510070516 47 0.0 0.0 0.00 0.20 0.00 98 1012.2
20260510070016 47 0.0 0.0 0.00 0.20 0.00 98 1012.1
20260510065516 47 0.0 0.0 0.00 0.20 0.00 98 1012.1
20260510065016 46 0.0 1.0 0.00 0.20 0.00 98 1012.1
20260510064516 46 0.0 1.0 0.00 0.20 0.00 98 1012.0
20260510064016 46 0.0 0.0 0.00 0.20 0.00 98 1011.6
20260510063516 46 0.0 0.0 0.00 0.20 0.00 98 1011.5
20260510063016 46 0.0 0.0 0.00 0.21 0.00 98 1011.6
20260510062516 45 0.0 0.0 0.00 0.21 0.00 98 1011.4
20260510062016 45 0.0 2.0 0.00 0.21 0.00 98 1011.5
20260510061516 45 0.0 1.0 0.00 0.21 0.00 98 1011.6
20260510061016 45 0.0 0.0 0.00 0.21 0.00 98 1011.7
20260510060516 44 0.0 0.0 0.00 0.21 0.00 98 1011.6
20260510060016 44 0.0 0.0 0.00 0.21 0.00 98 1011.6
20260510055516 44 0.0 0.0 0.00 0.21 0.00 97 1011.8
20260510055016 43 0.0 0.0 0.00 0.21 0.00 97 1011.7
20260510054516 43 0.0 0.0 0.00 0.21 0.00 97 1011.8
20260510054016 43 0.0 0.0 0.00 0.21 0.00 97 1011.7
20260510053516 43 0.0 0.0 0.00 0.21 0.00 97 1011.6
20260510053016 43 0.0 0.0 0.00 0.21 0.00 97 1011.5
20260510052516 43 0.0 0.0 0.00 0.21 0.00 97 1011.3
20260510052016 43 0.0 0.0 0.00 0.21 0.00 97 1011.1
20260510051516 43 0.0 0.0 0.00 0.21 0.00 97 1011.0
20260510051016 43 0.0 0.0 0.00 0.21 0.00 97 1011.0
20260510050516 43 0.0 0.0 0.00 0.21 0.00 97 1011.2
20260510050016 43 0.0 0.0 0.00 0.21 0.00 97 1011.1
20260510045516 43 0.0 0.0 0.00 0.21 0.00 97 1011.3
20260510045016 43 0.0 0.0 0.00 0.21 0.00 96 1011.4
20260510044516 43 0.0 0.0 0.00 0.21 0.00 96 1011.4
20260510044016 43 0.0 0.0 0.00 0.21 0.00 96 1011.3
20260510043516 43 0.0 0.0 0.00 0.21 0.00 96 1011.2
20260510043016 44 0.0 0.0 0.00 0.21 0.00 96 1011.2
20260510042516 44 0.0 0.0 0.00 0.21 0.00 96 1011.0
20260510042016 44 0.0 0.0 0.00 0.21 0.00 96 1011.2
20260510041516 44 0.0 0.0 0.00 0.21 0.00 96 1011.0
20260510041016 44 0.0 0.0 0.00 0.21 0.00 96 1011.1
20260510040516 44 0.0 0.0 0.00 0.21 0.00 96 1011.1
20260510040016 44 0.0 0.0 0.00 0.21 0.21 96 1011.1
20260510035515 44 0.0 0.0 0.00 0.21 0.21 96 1010.9
20260510035015 44 0.0 0.0 0.00 0.21 0.21 96 1010.9
20260510034515 44 0.0 0.0 0.00 0.21 0.21 96 1011.0
20260510034015 45 0.0 0.0 0.00 0.21 0.21 96 1011.0
20260510033516 45 0.0 0.0 0.00 0.21 0.21 96 1010.9
20260510033015 45 0.0 2.0 0.00 0.21 0.21 96 1011.0
20260510032515 45 0.0 0.0 0.00 0.21 0.21 96 1010.9
20260510032017 45 0.0 0.0 0.00 0.21 0.21 96 1010.9
20260510031517 45 0.0 0.0 0.00 0.21 0.21 96 1011.0
20260510031017 45 0.0 0.0 0.00 0.21 0.21 96 1011.0
20260510030517 46 0.0 0.0 0.00 0.21 0.21 96 1011.1
20260510030017 46 0.0 0.0 0.00 0.21 0.21 96 1011.1
20260510025517 46 0.0 0.0 0.00 0.21 0.21 96 1011.1
20260510025017 46 0.0 0.0 0.00 0.21 0.21 96 1011.1
20260510024517 46 0.0 0.0 0.00 0.21 0.21 96 1011.1
20260510024017 47 0.0 0.0 0.00 0.21 0.21 96 1011.2
20260510023517 47 0.0 0.0 0.00 0.21 0.21 96 1011.2
20260510023017 47 0.0 0.0 0.00 0.21 0.21 96 1011.1
20260510022517 47 0.0 0.0 0.00 0.21 0.21 96 1011.2
20260510022017 47 0.0 0.0 0.00 0.21 0.21 96 1011.0
20260510021517 47 0.0 0.0 0.00 0.21 0.21 96 1010.9
20260510021017 47 0.0 0.0 0.00 0.21 0.21 96 1010.9
20260510020517 48 0.0 0.0 0.00 0.21 0.21 96 1011.0
20260510020017 48 0.0 0.0 0.00 0.21 0.21 96 1010.9
20260510015517 48 0.0 0.0 0.00 0.21 0.21 96 1010.8
20260510015017 48 0.0 0.0 0.00 0.21 0.21 96 1010.8
20260510014517 49 0.0 0.0 0.00 0.21 0.21 96 1010.8
20260510014017 49 0.0 0.0 0.00 0.21 0.21 96 1010.8
20260510013516 49 0.0 0.0 0.00 0.21 0.21 96 1010.9
20260510013017 49 0.0 0.0 0.00 0.21 0.21 96 1010.8
20260510012517 49 0.0 0.0 0.00 0.21 0.21 96 1010.8
20260510012022 50 0.0 0.0 0.00 0.21 0.21 96 1010.7
20260510011516 50 0.0 0.0 0.00 0.21 0.21 96 1010.6
20260510011016 50 0.0 0.0 0.00 0.21 0.21 96 1010.6
20260510010517 50 0.0 0.0 0.00 0.21 0.21 96 1010.6
20260510010016 50 0.0 0.0 0.00 0.21 0.21 96 1010.4
20260510005517 51 0.0 0.0 0.00 0.21 0.21 96 1010.4
20260510005016 51 0.0 0.0 0.00 0.21 0.21 95 1010.4
20260510004516 51 0.0 0.0 0.00 0.21 0.21 96 1010.4
20260510004017 51 0.0 0.0 0.00 0.21 0.21 95 1010.2
20260510003516 51 0.0 0.0 0.00 0.21 0.21 95 1010.2
20260510003016 52 0.0 0.0 0.00 0.21 0.21 96 1010.2
20260510002516 52 0.0 2.0 0.00 0.21 0.21 95 1009.9
20260510002016 52 0.0 2.0 0.00 0.21 0.21 95 1009.9
20260510001517 52 0.0 3.0 0.00 0.21 0.21 96 1010.0
20260510001016 52 0.0 2.0 0.00 0.21 0.21 95 1009.9
20260510000517 53 0.0 2.0 0.00 0.21 0.21 95 1009.8
20260510000016 53 0.0 0.0 0.00 0.21 0.21 95 1009.7
20260509235516 53 0.0 0.0 0.00 0.21 0.21 95 1009.8
20260509235016 53 0.0 2.0 0.00 0.21 0.21 95 1009.7
20260509234516 53 0.0 0.0 0.00 0.21 0.21 95 1009.6
20260509234016 54 0.0 0.0 0.00 0.21 0.21 95 1009.6
20260509233516 54 0.0 0.0 0.00 0.21 0.21 95 1009.5
20260509233016 54 0.0 0.0 0.00 0.21 0.21 96 1009.6
20260509232516 54 0.0 3.0 0.00 0.21 0.21 96 1009.6
20260509232016 54 0.0 3.0 0.00 0.21 0.21 95 1009.5
20260509231516 54 0.0 2.0 0.00 0.21 0.21 96 1009.4
20260509231016 55 0.0 2.0 0.00 0.21 0.21 96 1009.6
20260509230517 55 158 1.0 4.0 0.00 0.21 0.21 96 1009.7
20260509230016 55 0.0 2.0 0.00 0.21 0.21 96 1009.7
20260509225516 55 158 1.0 4.0 0.00 0.21 0.21 96 1009.7
20260509225016 55 0.0 2.0 0.00 0.21 0.21 96 1009.7
20260509224516 55 180 1.0 5.0 0.00 0.21 0.21 96 1009.7
20260509224016 55 0.0 1.0 0.00 0.21 0.21 97 1009.7
20260509223516 54 0.0 2.0 0.00 0.21 0.21 96 1009.7
20260509223016 54 0.0 1.0 0.00 0.21 0.21 96 1009.7
20260509222516 54 0.0 3.0 0.00 0.21 0.21 96 1009.7
20260509222016 54 0.0 5.0 0.00 0.21 0.21 96 1009.7
20260509221516 54 0.0 0.0 0.00 0.21 0.21 96 1009.6
20260509221016 54 0.0 0.0 0.00 0.21 0.21 96 1009.5
20260509220516 54 0.0 2.0 0.00 0.21 0.21 96 1009.5
20260509220016 55 0.0 2.0 0.00 0.21 0.21 96 1009.7
20260509215516 55 0.0 2.0 0.01 0.21 0.21 96 1009.7
20260509215016 55 0.0 2.0 0.01 0.21 0.21 96 1009.9
20260509214516 55 0.0 2.0 0.01 0.21 0.21 96 1009.9
20260509214016 55 0.0 2.0 0.01 0.21 0.21 96 1010.0
20260509213516 55 0.0 3.0 0.01 0.21 0.21 96 1010.1
20260509213016 55 180 1.0 4.0 0.01 0.21 0.21 96 1010.1
20260509212516 55 0.0 1.0 0.01 0.21 0.21 96 1009.8
20260509212016 55 0.0 1.0 0.02 0.21 0.21 96 1010.0
20260509211516 55 0.0 3.0 0.02 0.21 0.21 96 1010.1
20260509211016 55 158 1.0 4.0 0.02 0.21 0.21 96 1010.2
20260509210516 55 158 1.0 4.0 0.03 0.21 0.21 97 1010.2
20260509210016 55 0.0 2.0 0.03 0.21 0.21 96 1010.1
20260509205516 55 0.0 1.0 0.02 0.20 0.20 96 1010.1
20260509205016 55 0.0 2.0 0.02 0.20 0.20 96 1010.2
20260509204516 54 0.0 2.0 0.03 0.20 0.20 96 1010.3
20260509204016 54 0.0 1.0 0.03 0.20 0.20 96 1010.4
20260509203516 54 0.0 0.0 0.03 0.20 0.20 96 1010.5
20260509203016 54 0.0 2.0 0.03 0.20 0.20 96 1010.5
20260509202516 54 0.0 1.0 0.03 0.20 0.20 96 1010.6
20260509202016 54 0.0 2.0 0.02 0.19 0.19 96 1010.7
20260509201516 54 0.0 3.0 0.03 0.19 0.19 96 1010.7
20260509201016 54 0.0 1.0 0.03 0.19 0.19 96 1010.8
20260509200516 54 180 1.0 4.0 0.02 0.18 0.18 95 1010.8
20260509200016 54 203 1.0 4.0 0.02 0.18 0.18 95 1010.9
20260509195516 54 158 1.0 4.0 0.03 0.18 0.18 96 1010.9
20260509195016 54 0.0 2.0 0.03 0.18 0.18 95 1011.0
20260509194516 54 180 1.0 5.0 0.03 0.17 0.17 95 1011.1
20260509194016 54 0.0 5.0 0.04 0.17 0.17 95 1011.1
20260509193516 54 0.0 4.0 0.04 0.17 0.17 95 1011.1
20260509193016 54 180 1.0 4.0 0.05 0.17 0.17 95 1011.2
20260509192516 54 158 1.0 4.0 0.05 0.17 0.17 95 1011.2
20260509192017 54 203 1.0 4.0 0.05 0.17 0.17 95 1011.3
20260509191516 54 180 2.0 5.0 0.05 0.16 0.16 95 1011.4
20260509191016 54 180 1.0 4.0 0.05 0.16 0.16 95 1011.4
20260509190516 54 158 3.0 7.0 0.05 0.16 0.16 95 1011.5
20260509190016 54 180 2.0 6.0 0.05 0.16 0.16 95 1011.6
20260509185516 54 203 2.0 6.0 0.05 0.15 0.15 95 1011.8
20260509185016 54 225 1.0 5.0 0.05 0.15 0.15 95 1011.9
20260509184516 54 203 2.0 7.0 0.04 0.14 0.14 95 1011.9
20260509184016 54 203 2.0 7.0 0.03 0.13 0.14 95 1011.9
20260509183516 54 225 3.0 8.0 0.04 0.13 0.13 95 1011.8
20260509183016 54 180 2.0 6.0 0.03 0.12 0.12 95 1011.9
20260509182516 55 203 3.0 9.0 0.03 0.12 0.12 95 1011.7
20260509182016 55 180 3.0 9.0 0.03 0.12 0.12 95 1011.8
20260509181516 55 203 2.0 8.0 0.03 0.11 0.11 95 1011.7
20260509181016 55 225 2.0 4.0 0.03 0.12 0.11 96 1011.7
20260509180516 55 203 2.0 4.0 0.03 0.12 0.11 96 1011.6
20260509180016 55 203 1.0 4.0 0.03 0.12 0.11 96 1011.6
20260509175515 55 270 1.0 5.0 0.02 0.11 0.10 96 1011.6
20260509175016 55 0.0 1.0 0.02 0.11 0.10 96 1011.4
20260509174515 55 270 1.0 3.0 0.02 0.11 0.10 96 1011.5
20260509174016 55 0.0 2.0 0.02 0.11 0.10 96 1011.5
20260509173516 55 0.0 2.0 0.01 0.10 0.09 96 1011.5
20260509173016 54 0.0 0.0 0.01 0.10 0.09 96 1011.3
20260509172516 54 0.0 0.0 0.01 0.10 0.09 96 1011.4
20260509172015 54 0.0 0.0 0.02 0.10 0.09 96 1011.2
20260509171516 54 0.0 0.0 0.01 0.09 0.08 95 1011.2
20260509171015 54 0.0 0.0 0.01 0.09 0.08 95 1011.3
20260509170515 54 0.0 0.0 0.01 0.09 0.08 95 1011.3
20260509170015 54 0.0 0.0 0.01 0.09 0.08 95 1011.3
20260509165516 54 0.0 0.0 0.02 0.09 0.08 95 1011.3
20260509165015 54 0.0 0.0 0.02 0.09 0.08 95 1011.4
20260509164515 54 0.0 0.0 0.02 0.09 0.08 95 1011.5
20260509164015 54 0.0 0.0 0.02 0.09 0.08 96 1011.7
20260509163515 54 0.0 0.0 0.02 0.09 0.08 96 1011.7
20260509163015 54 0.0 0.0 0.03 0.09 0.08 96 1011.7
20260509162515 53 0.0 0.0 0.03 0.09 0.08 95 1011.7
20260509162015 53 0.0 0.0 0.02 0.08 0.07 95 1011.7
20260509161515 53 0.0 0.0 0.02 0.08 0.07 95 1011.7
20260509161015 53 0.0 0.0 0.02 0.08 0.07 95 1011.8
20260509160515 53 0.0 0.0 0.02 0.08 0.07 95 1011.9
20260509160015 53 0.0 0.0 0.02 0.08 0.07 95 1012.0
20260509155515 53 0.0 0.0 0.01 0.07 0.06 95 1012.1
20260509155015 52 0.0 0.0 0.01 0.07 0.06 95 1012.2
20260509154515 52 0.0 0.0 0.01 0.07 0.06 95 1012.3
20260509154015 52 0.0 0.0 0.01 0.07 0.06 95 1012.4
20260509153515 52 0.0 0.0 0.01 0.07 0.06 95 1012.5
20260509153015 52 0.0 0.0 0.00 0.06 0.05 95 1012.6
20260509152515 52 0.0 0.0 0.00 0.06 0.05 94 1012.5
20260509152015 52 0.0 0.0 0.00 0.06 0.05 94 1012.5
20260509151515 52 0.0 0.0 0.00 0.06 0.05 94 1012.4
20260509151015 52 0.0 1.0 0.00 0.06 0.05 94 1012.5
20260509150515 52 0.0 0.0 0.00 0.06 0.05 94 1012.4
20260509150015 52 0.0 1.0 0.00 0.06 0.05 94 1012.2
20260509145515 52 0.0 1.0 0.00 0.06 0.05 95 1012.2
20260509145015 52 0.0 1.0 0.00 0.06 0.05 95 1012.0
20260509144515 52 270 1.0 3.0 0.00 0.06 0.05 95 1012.1
20260509144015 52 0.0 1.0 0.00 0.06 0.05 96 1012.2
20260509143515 51 0.0 2.0 0.00 0.06 0.05 96 1012.2
20260509143015 51 0.0 1.0 0.00 0.06 0.05 96 1012.2
20260509142515 51 0.0 2.0 0.00 0.06 0.05 96 1012.3
20260509142015 51 270 1.0 2.0 0.00 0.06 0.05 96 1012.4
20260509141515 51 0.0 0.0 0.00 0.06 0.05 96 1012.2
20260509141015 51 270 1.0 3.0 0.00 0.06 0.05 96 1012.3
20260509140515 50 270 1.0 2.0 0.01 0.06 0.05 96 1012.2
20260509140015 50 0.0 1.0 0.01 0.06 0.05 96 1012.2
20260509135515 50 0.0 1.0 0.01 0.06 0.05 96 1012.4
20260509135015 50 0.0 2.0 0.01 0.06 0.05 96 1012.4
20260509134515 50 270 1.0 2.0 0.01 0.06 0.05 96 1012.4
20260509134015 50 0.0 2.0 0.01 0.06 0.05 96 1012.6
20260509133515 49 0.0 1.0 0.01 0.06 0.05 96 1012.5